星链-31907 (STARLINK-31907 )

导读 | 星芒AI

STARLINK-31907 是 SpaceX Starlink 卫星互联网项目中的一颗低轨卫星,属于第三代星链卫星(v1.5 或 v2 版本)。该卫星于 2023 年发射,旨在为全球用户提供高速、低延迟的宽带互联网服务。它运行在约 550 公里的轨道高度,配备先进通信设备和激光链路,以提升网络性能和卫星间通信能力。STARLINK-31907 是 Starlink 网络扩展计划的一部分,有助于改善偏远地区的网络接入,并支持更多用户同时在线。

基本信息
目录编号:
59797
目录名称:
STARLINK-31907
国际标识:
2024-093R
轨道中心:
EARTH
卫星名称:
星链-31907
卫星全名:
星链-31907 (STARLINK-31907 )
卫星状态:
在轨 (已飞行581 天)
发射日期:
2024-05-18 UTC
国别 :
美国 (US)
星等 :
--
轨道信息
数据来源 国际轨道数据
星历时间: 2025-12-19T14:08:10+0800
21小时前
查看轨道信息
半长轴: 6861.191km
偏心率: 0.0001044
轨道倾角: 43.004°
近地点辐角 266.660°
升交点赤经 303.183°
平近点角 93.413°
近地点: 482.337km
远地点: 483.771km
周期: 94.267分钟
每日圈数: 15.275786
详细信息
固有亮度:
5
最大亮度:
1.5
卫星平台:
Starlink v2.0 mini
覆盖范围:
全球
运营商:
太空探索技术公司
运营商所在国:
美国
制造商(研发单位):
太空探索技术公司
制造商所在国:
美国
使用方式:
暂无
卫星简介
星链(Starlink)计划是由太空探索技术公司(SpaceX)提出的一个巨型低轨卫星互联网星座项目,计划在2019年至2024年间在太空搭建由约1.2万颗卫星组成的“星链”网络,其中1584颗将部署在地球上空550千米处的近地轨道,并从2020年开始工作。该卫星仍在工作。
2D轨道图
3D轨道图
轨道高度分析图
轨道倾角分析图
轨道综合分析图
查看轨道综合分析图